Waarnemingen

Advertentie
Mijn weer
Baltasound, Groot Brittannië (3002): temperatuur & dauwpunt: 11.10.2017 10:00:00 - 17.10.2017 10:00:00 (BST)Baltasound, Groot Brittannië (3002): temperatuur -20cm: 11.10.2017 10:00:00 - 17.10.2017 10:00:00 (BST)Baltasound, Groot Brittannië (3002): windsnelheid & windstoten: 11.10.2017 10:00:00 - 17.10.2017 10:00:00 (BST)Baltasound, Groot Brittannië (3002): windrichting: 11.10.2017 10:00:00 - 17.10.2017 10:00:00 (BST)Baltasound, Groot Brittannië (3002): luchtdruk: 11.10.2017 10:00:00 - 17.10.2017 10:00:00 (BST)Baltasound, Groot Brittannië (3002): zicht: 11.10.2017 10:00:00 - 17.10.2017 10:00:00 (BST)Baltasound, Groot Brittannië (3002): neerslag: 11.10.2017 10:00:00 - 17.10.2017 10:00:00 (BST)
Datum & Tijd tt [°C] td [°C] tt -20cm [°C] ff [km/u] ff [kn] fx [km/u] fx [kn] dd ppp [hPa] vv [km] rr [mm]
17.10.2017 10:00:00 8,8 6,7 10,0 55 30 74 40 NO 1000,2 11 0,2
17.10.2017 09:00:00 8,6 6,8 - 52 28 78 42 NO 999,9 10 0,0
17.10.2017 08:00:00 8,7 7,3 - 55 30 78 42 NO 999,4 9 1,8
17.10.2017 07:00:00 8,5 7,3 - 55 30 80 43 NO 999,1 3,7 2,0
17.10.2017 06:00:00 8,3 6,9 - 57 31 81 44 ONO 999,2 4,1 2,4
17.10.2017 05:00:00 8,5 7,5 - 54 29 72 39 ONO 999,6 2,9 1,4
17.10.2017 04:00:00 8,7 7,6 - 52 28 70 38 ONO 1000,0 7 1,0
17.10.2017 03:00:00 8,6 7,3 - 52 28 68 37 ONO 1001,1 11 0,6
17.10.2017 02:00:00 8,3 7,1 - 48 26 65 35 ONO 1002,4 7 1,6
17.10.2017 01:00:00 8,2 7,1 - 42 23 57 31 O 1004,2 5 3,6
17.10.2017 00:00:00 8,8 7,5 - 39 21 54 29 O 1005,4 4,8 1,4
16.10.2017 23:00:00 9,4 7,0 - 39 21 52 28 O 1006,0 25 0,0
16.10.2017 22:00:00 9,5 6,8 - 37 20 50 27 O 1007,2 40 0,0
16.10.2017 21:00:00 9,0 5,9 - 34 18 - - O 1009,3 50 1,0
16.10.2017 20:00:00 9,8 7,6 - 22 12 - - OZO 1010,8 5 0,4
16.10.2017 19:00:00 10,1 7,9 - 22 12 - - O 1011,5 35 -
16.10.2017 18:00:00 9,9 7,7 - 13 7 - - O 1012,0 45 0,0
16.10.2017 17:00:00 10,3 8,1 - 11 6 - - OZO 1012,6 30 0,0
16.10.2017 16:00:00 10,4 8,4 - 9 5 - - O 1013,3 19 0,0
16.10.2017 15:00:00 10,3 8,0 - 8 4 - - OZO 1014,4 40 0,0
16.10.2017 14:00:00 11,0 7,1 - 8 4 - - W 1014,8 30 0,0
16.10.2017 13:00:00 12,4 7,8 - 15 8 - - W 1015,3 40 0,0
16.10.2017 12:00:00 11,7 7,6 - 13 7 - - ZW 1015,2 45 0,0
16.10.2017 11:00:00 10,7 8,9 - 13 7 - - ZW 1014,5 30 0,0
16.10.2017 10:00:00 7,4 6,5 10,2 11 6 - - ZZW 1014,1 35 0,0
16.10.2017 09:00:00 8,2 7,3 - 15 8 - - ZZW 1014,0 45 0,0
16.10.2017 08:00:00 7,9 6,9 - 13 7 - - ZZW 1013,8 29 0,0
16.10.2017 07:00:00 7,4 6,4 - 13 7 - - ZW 1013,2 25 0,0
16.10.2017 06:00:00 7,3 6,3 - 9 5 - - ZZW 1012,7 45 0,2
16.10.2017 05:00:00 8,1 6,8 - 15 8 - - ZW 1012,9 3,8 0,2
16.10.2017 04:00:00 8,1 6,7 - 13 7 - - ZZW 1012,5 24 0,0
16.10.2017 03:00:00 8,5 6,5 - 13 7 - - ZW 1012,4 23 0,2
16.10.2017 02:00:00 8,9 6,1 - 11 6 - - W 1011,7 28 0,0
16.10.2017 01:00:00 8,8 5,9 - 16 9 - - WNW 1010,6 30 0,0
16.10.2017 00:00:00 8,8 5,4 - 28 15 - - WNW 1009,2 35 0,0
15.10.2017 23:00:00 8,6 5,9 - 29 16 57 31 WNW 1007,5 25 0,0
15.10.2017 22:00:00 8,5 6,6 - 41 22 63 34 NW 1005,8 29 0,0
15.10.2017 21:00:00 9,1 6,6 - 50 27 78 42 WNW 1003,3 19 0,0
15.10.2017 20:00:00 9,4 7,3 - 59 32 89 48 WNW 1001,0 12 0,0
15.10.2017 19:00:00 10,2 9,3 - 63 34 83 45 W 996,1 8 0,0
15.10.2017 18:00:00 12,2 10,8 - 52 28 76 41 ZW 993,6 7 0,0
15.10.2017 17:00:00 13,7 12,0 - 42 23 55 30 Z 994,0 12 0,0
15.10.2017 16:00:00 13,5 12,0 - 37 20 55 30 ZZW 995,4 12 0,0
15.10.2017 15:00:00 13,6 12,1 - 41 22 57 31 ZZW 996,2 14 0,0
15.10.2017 14:00:00 13,2 12,4 - 37 20 48 26 Z 996,9 11 0,2
15.10.2017 13:00:00 12,9 12,4 - 31 17 - - Z 997,7 10 0,6
15.10.2017 12:00:00 12,7 12,3 - 31 17 - - ZZW 998,5 5 1,4
15.10.2017 11:00:00 12,5 12,2 - 31 17 - - Z 998,9 9 1,2
15.10.2017 10:00:00 12,0 11,7 10,0 26 14 - - Z 1000,2 5 2,0
15.10.2017 09:00:00 11,0 10,7 - 24 13 - - ZO 1001,3 6 1,8
15.10.2017 08:00:00 9,1 8,6 - 28 15 - - O 1003,3 8 2,0
15.10.2017 07:00:00 8,7 7,9 - 28 15 - - OZO 1005,2 8 1,4
15.10.2017 06:00:00 8,9 7,7 - 21 11 - - ZZO 1007,3 11 1,0
15.10.2017 05:00:00 8,8 7,4 - 16 9 - - ZZW 1008,6 10 1,4
15.10.2017 04:00:00 10,2 8,9 - 21 11 - - Z 1009,0 9 0,0
15.10.2017 03:00:00 10,3 8,8 - 18 10 - - ZZW 1010,4 13 0,0
15.10.2017 02:00:00 10,0 8,6 - 16 9 - - Z 1010,6 12 0,0
15.10.2017 01:00:00 10,0 8,4 - 18 10 - - ZW 1010,7 11 0,0
15.10.2017 00:00:00 10,2 8,0 - 24 13 - - WZW 1010,9 12 0,0
14.10.2017 23:00:00 10,5 7,7 - 26 14 - - WZW 1010,6 11 0,0
14.10.2017 22:00:00 10,8 7,8 - 29 16 50 27 WZW 1010,1 11 0,0
14.10.2017 21:00:00 10,6 7,7 - 37 20 57 31 WZW 1009,9 11 0,0
14.10.2017 20:00:00 10,7 7,7 - 41 22 61 33 WZW 1009,3 11 0,0
14.10.2017 19:00:00 10,8 7,9 - 42 23 57 31 WZW 1008,5 11 0,0
14.10.2017 18:00:00 10,8 7,9 - 41 22 61 33 WZW 1007,9 10 0,0
14.10.2017 17:00:00 10,6 7,8 - 42 23 63 34 WZW 1007,4 15 0,0
14.10.2017 16:00:00 10,7 8,7 - 46 25 68 37 WZW 1007,0 4,3 0,4
14.10.2017 15:00:00 11,8 8,9 - 48 26 65 35 WZW 1006,4 11 0,4
14.10.2017 14:00:00 11,8 9,4 - 46 25 68 37 WZW 1005,9 10 0,2
14.10.2017 13:00:00 12,1 8,2 - 54 29 70 38 WZW 1005,4 10 0,0
14.10.2017 12:00:00 11,9 8,9 - 46 25 68 37 WZW 1004,8 7 0,0
14.10.2017 11:00:00 11,3 8,3 - 48 26 67 36 WZW 1004,4 11 0,0
14.10.2017 10:00:00 9,7 7,6 10,2 48 26 76 41 WZW 1004,0 2,6 1,8
14.10.2017 09:00:00 10,8 8,1 - 42 23 67 36 WZW 1003,3 9 0,4
14.10.2017 08:00:00 10,9 7,7 - 44 24 63 34 ZW 1002,8 10 0,0
14.10.2017 07:00:00 10,7 7,8 - 42 23 68 37 ZW 1002,3 9 0,0
14.10.2017 06:00:00 10,6 7,1 - 52 28 68 37 WZW 1002,3 10 0,0
14.10.2017 05:00:00 10,6 7,4 - 46 25 65 35 WZW 1001,9 10 0,0
14.10.2017 04:00:00 10,3 8,1 - 37 20 61 33 ZW 1001,8 9 0,2
14.10.2017 03:00:00 10,2 7,9 - 34 18 68 37 ZW 1001,9 9 0,2
14.10.2017 02:00:00 10,4 7,3 - 50 27 63 34 ZW 1001,9 6 0,0
14.10.2017 01:00:00 10,5 8,0 - 44 24 59 32 WZW 1001,4 8 0,2
14.10.2017 00:00:00 10,5 7,6 - 37 20 54 29 ZW 1000,9 9 0,0
13.10.2017 23:00:00 11,0 7,4 - 37 20 55 30 ZW 1000,5 9 0,0
13.10.2017 22:00:00 10,9 8,1 - 35 19 61 33 ZW 1000,4 9 0,0
13.10.2017 21:00:00 11,1 7,0 - 42 23 63 34 ZW 1000,1 10 0,0
13.10.2017 20:00:00 11,6 8,1 - 41 22 65 35 ZW 999,7 9 0,0
13.10.2017 19:00:00 11,8 8,1 - 39 21 70 38 ZW 999,3 9 0,0
13.10.2017 18:00:00 12,2 8,7 - 37 20 59 32 ZW 998,5 9 0,0
13.10.2017 17:00:00 12,6 9,5 - 37 20 61 33 ZW 998,2 8 0,0
13.10.2017 16:00:00 12,9 9,3 - 46 25 70 38 ZW 998,0 10 0,0
13.10.2017 15:00:00 13,9 9,8 - 44 24 63 34 ZW 997,1 12 0,0
13.10.2017 14:00:00 13,7 10,0 - 42 23 57 31 ZW 996,7 11 0,0
13.10.2017 13:00:00 13,7 9,5 - 39 21 57 31 WZW 996,5 9 0,0
13.10.2017 12:00:00 13,6 11,2 - 41 22 54 29 WZW 995,9 16 0,0
13.10.2017 11:00:00 13,5 13,1 - 29 16 48 26 ZZW 995,7 7 0,2
13.10.2017 10:00:00 13,0 12,6 10,0 39 21 54 29 Z 995,5 2,2 0,4
13.10.2017 09:00:00 12,8 12,2 - 37 20 50 27 Z 995,5 8 0,0
13.10.2017 08:00:00 12,6 12,0 - 39 21 55 30 Z 995,8 8 0,0
13.10.2017 07:00:00 12,5 12,0 - 41 22 55 30 Z 996,2 9 0,0
13.10.2017 06:00:00 11,9 11,5 - 42 23 57 31 Z 996,6 7 2,0
13.10.2017 05:00:00 11,5 11,1 - 42 23 57 31 Z 997,5 4,9 1,2
13.10.2017 04:00:00 11,3 10,6 - 39 21 59 32 Z 998,2 4,0 4,2
13.10.2017 03:00:00 11,1 9,9 - 41 22 57 31 Z 999,0 9 0,0
13.10.2017 02:00:00 10,8 9,6 - 44 24 61 33 Z 1000,2 11 0,6
13.10.2017 01:00:00 11,5 9,4 - 46 25 61 33 Z 1001,2 15 0,0
13.10.2017 00:00:00 11,3 9,5 - 41 22 57 31 Z 1002,0 15 0,2
12.10.2017 23:00:00 10,6 9,4 - 42 23 57 31 Z 1003,2 10 1,2
12.10.2017 22:00:00 10,5 8,8 - 34 18 - - Z 1004,0 12 0,4
12.10.2017 21:00:00 10,3 8,2 - 26 14 - - Z 1004,5 18 0,0
12.10.2017 20:00:00 10,1 7,7 - 24 13 - - ZZW 1005,0 18 0,0
12.10.2017 19:00:00 9,8 8,0 - 18 10 - - Z 1004,9 12 0,0
12.10.2017 18:00:00 9,5 6,5 - 15 8 - - ZW 1004,9 22 0,0
12.10.2017 17:00:00 10,4 6,8 - 29 16 46 25 WZW 1004,6 16 0,0
12.10.2017 16:00:00 11,1 6,3 - 31 17 48 26 WZW 1004,1 27 0,0
12.10.2017 15:00:00 11,3 6,7 - 37 20 50 27 WZW 1003,4 15 0,0
12.10.2017 14:00:00 11,3 6,2 - 35 19 50 27 W 1002,7 14 0,0
12.10.2017 13:00:00 10,7 5,9 - 35 19 50 27 W 1001,8 20 0,0
12.10.2017 12:00:00 10,9 5,7 - 35 19 50 27 W 1000,7 17 0,0
12.10.2017 11:00:00 10,2 5,6 - 39 21 52 28 W 999,6 14 0,0
12.10.2017 10:00:00 9,1 5,7 10,0 37 20 59 32 W 998,2 27 0,2
12.10.2017 09:00:00 8,3 5,7 - 34 18 - - W 996,8 29 0,2
12.10.2017 08:00:00 7,3 5,4 - 26 14 57 31 W 995,8 17 3,0
12.10.2017 07:00:00 7,3 5,9 - 21 11 - - ZW 994,9 30 0,0
12.10.2017 06:00:00 7,5 6,2 - 21 11 48 26 ZW 994,3 45 0,6
12.10.2017 05:00:00 6,5 5,4 - 18 10 - - ZW 994,0 29 0,0
12.10.2017 04:00:00 8,2 6,0 - 26 14 - - ZW 993,8 30 0,0
12.10.2017 03:00:00 7,1 5,5 - 16 9 - - ZZW 993,8 17 0,0
12.10.2017 02:00:00 7,0 5,2 - 18 10 - - ZW 994,1 35 0,0
12.10.2017 01:00:00 7,7 6,2 - 21 11 - - ZZW 993,9 16 0,0
12.10.2017 00:00:00 6,9 4,7 - 21 11 - - ZW 993,8 28 0,2
11.10.2017 23:00:00 6,3 4,9 - 16 9 - - ZW 993,5 20 0,0
11.10.2017 22:00:00 6,2 4,2 - 16 9 - - ZZW 993,4 35 0,0
11.10.2017 21:00:00 7,5 5,9 - 16 9 - - ZW 993,2 15 0,0
11.10.2017 20:00:00 7,4 5,4 - 18 10 - - ZW 993,1 20 0,0
11.10.2017 19:00:00 9,5 5,6 - 24 13 - - WZW 992,3 19 0,0
11.10.2017 18:00:00 9,4 5,1 - 29 16 46 25 WZW 991,4 21 0,0
11.10.2017 17:00:00 10,5 5,5 - 34 18 48 26 W 990,9 19 0,0
11.10.2017 16:00:00 11,2 6,7 - 31 17 52 28 W 990,4 16 0,0
11.10.2017 15:00:00 11,4 5,8 - 37 20 52 28 WZW 989,8 19 0,0
11.10.2017 14:00:00 11,6 6,8 - 39 21 50 27 WZW 989,3 21 0,0
11.10.2017 13:00:00 11,1 8,7 - 29 16 50 27 WZW 988,4 22 0,2
11.10.2017 12:00:00 11,7 9,6 - 31 17 - - WZW 987,6 29 1,2
11.10.2017 11:00:00 11,2 9,4 - 29 16 - - ZW 986,8 12 0,0
11.10.2017 10:00:00 10,6 7,7 10,2 31 17 52 28 WZW 986,6 40 0,0

tt = temperatuur
td = dauwpunt
tt -20cm = temperatuur -20cm
ff = windsnelheid
fx = windstoten
dd = windrichting
ppp = luchtdruk
vv = zicht
rr = neerslag

Weerstations in de omgeving